K2MKS Weather Reports


time (UTC)temp
F
wind
direction
speed
knots
gust
knots
rain 1hr
in
rain 24hr
in
rain mn
in
humidity
%
barometer
mb
20260504050459 48 205 0.0 0.0 0.00 0.01 0.00 87 1008.6
20260504050003 48 205 0.0 0.0 0.00 0.01 0.00 86 1008.7
20260504045506 48 205 0.0 0.0 0.00 0.01 0.00 86 1008.6
20260504045004 48 205 0.0 0.0 0.00 0.01 0.00 86 1008.6
20260504044502 48 205 0.0 0.0 0.00 0.01 0.00 86 1008.8
20260504043506 48 205 0.0 0.0 0.00 0.01 0.00 86 1008.8
20260504043006 48 205 0.0 0.0 0.00 0.01 0.00 85 1008.8
20260504042502 48 205 0.0 0.0 0.00 0.01 0.00 85 1008.8
20260504042004 48 205 0.0 0.0 0.00 0.01 0.00 85 1008.8
20260504041004 48 205 0.0 0.0 0.00 0.01 0.00 85 1008.9
20260504040504 48 205 0.0 0.0 0.00 0.01 0.00 84 1008.8
20260504040007 48 205 0.0 0.0 0.00 0.01 0.00 83 1008.9
20260504035503 48 205 0.0 0.0 0.00 0.01 0.01 83 1008.8
20260504035004 48 205 0.0 0.0 0.00 0.01 0.01 84 1008.9
20260504034500 48 205 0.0 0.0 0.00 0.01 0.01 84 1008.9
20260504034005 48 205 0.0 0.0 0.00 0.01 0.01 84 1008.9
20260504033504 48 205 0.0 0.0 0.00 0.01 0.01 84 1009.0
20260504033006 48 205 0.0 0.0 0.00 0.01 0.01 84 1008.9
20260504031505 48 251 0.0 0.0 0.00 0.01 0.01 84 1009.0
20260504031005 48 251 0.0 0.0 0.00 0.01 0.01 84 1009.2
20260504030503 48 251 0.0 0.0 0.00 0.01 0.01 83 1009.4
20260504030004 48 251 0.0 0.0 0.00 0.01 0.01 83 1009.2
20260504025506 48 251 0.0 0.0 0.00 0.01 0.01 82 1009.2
20260504025005 48 251 0.0 0.0 0.00 0.01 0.01 81 1009.2
20260504024506 49 251 0.0 0.0 0.00 0.01 0.01 81 1009.2
20260504023003 49 251 0.0 0.0 0.00 0.01 0.01 80 1009.3
20260504022501 49 251 0.0 0.0 0.01 0.01 0.01 79 1009.5
20260504022004 49 251 0.0 0.0 0.01 0.01 0.01 79 1009.7
20260504021504 49 251 0.0 0.0 0.01 0.01 0.01 78 1009.9
20260504021000 49 251 0.0 0.0 0.01 0.01 0.01 78 1009.9
20260504020007 49 251 0.0 0.0 0.01 0.01 0.01 77 1009.8
20260504015504 49 291 0.0 1.7 0.01 0.01 0.01 77 1009.9
20260504015004 49 267 0.0 3.5 0.01 0.01 0.01 76 1010.0
20260504014500 50 219 0.9 6.1 0.01 0.01 0.01 76 1010.0
20260504014005 50 257 1.7 6.1 0.01 0.01 0.01 74 1010.1
20260504013504 50 236 2.6 7.8 0.01 0.01 0.01 74 1010.3
20260504013004 50 206 2.6 7.8 0.01 0.01 0.01 72 1010.4
20260504012505 51 275 2.6 10.4 0.00 0.00 0.00 70 1010.4
20260504012004 51 271 1.7 10.4 0.00 0.00 0.00 68 1010.3
20260504011003 52 310 1.7 7.8 0.00 0.00 0.00 66 1009.8
20260504010500 52 154 2.6 8.7 0.00 0.00 0.00 65 1009.7
20260504010005 52 286 2.6 8.7 0.00 0.00 0.00 63 1009.6
20260504005500 52 295 2.6 8.7 0.00 0.00 0.00 63 1009.7
20260504005004 52 291 2.6 9.6 0.00 0.00 0.00 62 1009.7
20260504004502 52 264 1.7 8.7 0.00 0.00 0.00 61 1009.7
20260504004005 52 278 0.9 6.1 0.00 0.00 0.00 62 1009.6
20260504003501 53 326 1.7 9.6 0.00 0.00 0.00 63 1009.4
20260504003005 53 280 2.6 9.6 0.00 0.00 0.00 58 1009.3
20260504002005 53 277 2.6 16.5 0.00 0.00 0.00 58 1009.2
20260504001501 53 181 0.0 9.6 0.00 0.00 0.00 58 1009.1
20260504001001 53 112 0.0 1.7 0.00 0.00 0.00 58 1008.9
20260504000459 53 112 0.0 1.7 0.00 0.00 0.00 55 1008.7
20260504000000 53 132 0.0 0.0 0.00 0.00 0.00 53 1008.7
20260503234959 53 85 0.0 3.5 0.00 0.00 0.00 54 1008.5
20260503234500 53 173 0.0 3.5 0.00 0.00 0.00 52 1008.6
20260503234000 54 247 0.0 0.0 0.00 0.00 0.00 51 1008.8
20260503233500 54 247 0.0 0.0 0.00 0.00 0.00 49 1008.7
20260503233002 54 247 0.0 0.9 0.00 0.00 0.00 49 1008.7
20260503232001 54 215 1.7 6.1 0.00 0.00 0.00 49 1008.9
20260503231500 54 198 0.9 5.2 0.00 0.00 0.00 48 1009.2
20260503231001 54 241 1.7 7.0 0.00 0.00 0.00 48 1009.4
20260503230459 54 309 3.5 7.8 0.00 0.00 0.00 47 1009.6
20260503224959 55 111 2.6 10.4 0.00 0.00 0.00 44 1009.4
20260503224004 55 280 1.7 8.7 0.00 0.00 0.00 44 1009.2
20260503223459 55 277 1.7 8.7 0.00 0.00 0.00 42 1009.1
20260503222459 56 280 2.6 8.7 0.00 0.00 0.00 40 1009.2
20260503221459 56 281 0.9 3.5 0.00 0.00 0.00 43 1009.0
20260503220459 56 134 0.9 4.3 0.00 0.00 0.00 42 1009.0
20260503220000 56 193 0.9 4.3 0.00 0.00 0.00 41 1009.0
20260503215500 56 157 1.7 4.3 0.00 0.00 0.00 43 1009.1
20260503215000 56 277 1.7 4.3 0.00 0.00 0.00 42 1009.1
20260503214500 56 137 1.7 7.0 0.00 0.00 0.00 41 1009.1
20260503214000 56 265 0.9 7.0 0.00 0.00 0.00 41 1009.2
20260503213501 56 273 0.9 3.5 0.00 0.00 0.00 42 1009.2
20260503213000 56 256 0.9 3.5 0.00 0.00 0.00 42 1009.2
20260503212500 55 279 0.9 4.3 0.00 0.00 0.00 45 1009.1
20260503212000 55 277 0.9 4.3 0.00 0.00 0.00 42 1009.1
20260503211501 55 250 0.9 4.3 0.00 0.00 0.00 44 1009.1
20260503211004 55 198 1.7 6.1 0.00 0.00 0.00 47 1009.1
20260503210500 55 275 1.7 3.5 0.00 0.00 0.00 45 1009.2
20260503210002 55 272 0.9 2.6 0.00 0.00 0.00 46 1009.2
20260503205504 55 290 0.9 3.5 0.00 0.00 0.00 48 1009.2
20260503204504 55 194 1.7 7.0 0.00 0.00 0.00 46 1009.3
20260503204005 55 169 2.6 7.8 0.00 0.00 0.00 45 1009.4
20260503203504 55 277 1.7 7.8 0.00 0.00 0.00 44 1009.5
20260503203004 56 246 0.9 3.5 0.00 0.00 0.00 45 1009.5
20260503202500 56 168 0.9 5.2 0.00 0.00 0.00 43 1009.6
20260503202003 56 193 0.9 5.2 0.00 0.00 0.00 42 1009.6
20260503201505 56 204 1.7 7.8 0.00 0.00 0.00 41 1009.8
20260503201003 57 275 1.7 7.8 0.00 0.00 0.00 40 1009.8
20260503200504 56 145 1.7 4.3 0.00 0.00 0.00 39 1009.8
20260503200004 56 185 2.6 9.6 0.00 0.00 0.00 41 1009.9
20260503195000 55 296 3.5 9.6 0.00 0.00 0.00 41 1010.0
20260503194501 54 294 1.7 8.7 0.00 0.00 0.00 41 1010.1
20260503194000 54 355 1.7 4.3 0.00 0.00 0.00 42 1010.1
20260503193000 54 55 2.6 8.7 0.00 0.00 0.00 40 1010.2
20260503192500 55 240 2.6 8.7 0.00 0.00 0.00 41 1010.3
20260503191959 55 283 1.7 7.8 0.00 0.00 0.00 42 1010.2
20260503191500 55 321 1.7 8.7 0.00 0.00 0.00 44 1010.1
20260503190959 55 244 1.7 8.7 0.00 0.00 0.00 42 1010.3
20260503185500 56 155 1.7 7.8 0.00 0.00 0.00 40 1010.3
20260503185002 55 261 1.7 5.2 0.00 0.00 0.00 39 1010.4
20260503184500 55 251 1.7 9.6 0.00 0.00 0.00 40 1010.4
20260503184002 56 290 1.7 9.6 0.00 0.00 0.00 38 1010.4
20260503183501 56 136 2.6 7.8 0.00 0.00 0.00 41 1010.5
20260503183000 56 288 3.5 9.6 0.00 0.00 0.00 41 1010.6
20260503182502 55 171 2.6 8.7 0.00 0.00 0.00 40 1010.6
20260503181959 55 129 2.6 8.7 0.00 0.00 0.00 38 1010.9
20260503181500 55 201 2.6 8.7 0.00 0.00 0.00 39 1010.9
20260503181000 55 276 1.7 9.6 0.00 0.00 0.00 38 1010.9
20260503180500 55 289 1.7 7.8 0.00 0.00 0.00 44 1011.0
20260503180001 55 278 1.7 7.0 0.00 0.00 0.00 39 1011.0
20260503175459 55 265 1.7 7.0 0.00 0.00 0.00 39 1011.1
20260503175000 55 292 2.6 7.8 0.00 0.00 0.00 37 1011.0
20260503174502 54 259 2.6 8.7 0.00 0.00 0.00 39 1011.1
20260503174000 54 271 1.7 7.8 0.00 0.00 0.00 40 1011.0
20260503173500 54 222 1.7 6.1 0.00 0.00 0.00 39 1011.2
20260503172500 54 256 2.6 7.8 0.00 0.00 0.00 37 1011.3
20260503172001 54 360 1.7 7.0 0.00 0.00 0.00 39 1011.3
20260503171500 53 315 1.7 7.0 0.00 0.00 0.00 37 1011.3
20260503171001 53 231 1.7 7.8 0.00 0.00 0.00 43 1011.4
20260503170500 53 267 2.6 8.7 0.00 0.00 0.00 39 1011.5
20260503151000 49 286 2.6 9.6 0.00 0.00 0.00 42 1013.1
20260503130501 43 286 2.6 5.2 0.00 0.00 0.00 64 1013.6
20260503110500 36 239 0.0 0.0 0.00 0.00 0.00 87 1013.1
20260503090459 38 255 0.0 0.0 0.00 0.00 0.00 81 1012.7
20260503080959 39 240 0.0 0.9 0.00 0.00 0.00 81 1012.8
20260503080459 39 240 0.0 0.9 0.00 0.00 0.00 81 1012.8
20260503072457 39 244 0.0 1.7 0.00 0.00 0.00 80 1012.8
20260503071457 39 252 0.0 1.7 0.00 0.00 0.00 81 1012.7
20260503070959 39 185 0.0 1.7 0.00 0.00 0.00 81 1012.7
20260503070458 39 254 0.0 0.9 0.00 0.00 0.00 80 1012.7
20260503055000 40 198 0.0 0.9 0.00 0.00 0.00 81 1012.8
20260503054458 40 182 0.0 0.9 0.00 0.00 0.00 81 1012.9